Weather History for LIMH - December, 2013

Change the Weather History Date:

Thursday, December 19, 2013

  Actual Average Record
Temperature  
Mean Temperature 17 °F -  
Max Temperature 19 °F 18 °F 28 °F (1999)
Min Temperature 15 °F 7 °F -11 °F (2011)
Degree Days  
Heating Degree Days 48    
Moisture  
Dew Point 13 °F    
Average Humidity 77    
Maximum Humidity 100    
Minimum Humidity 44    
Precipitation  
Precipitation 0.00 in - - ()
Sea Level Pressure  
Sea Level Pressure 29.94 in    
Wind  
Wind Speed 23 mph ()    
Max Wind Speed 36 mph    
Max Gust Speed 50 mph    
Visibility 2.8 miles    
Events Fog , Snow    
Averages and records for this station are not official NWS values.
T = Trace of Precipitation, MM = Missing Value Source: Averaged Metar Reports

Daily Weather History Graph

Daily Weather History Graph

Search for Another Location

Airport or City:

Trip Planner

Search our weather history database for the weather conditions in past years. The results will help you decide how hot, cold, wet, or windy it might be!

Date:

Astronomy

Dec. 19, 2013 Rise Set
Actual Time 8:06 AM CET 4:45 PM CET
Civil Twilight 7:32 AM CET 5:20 PM CET
Nautical Twilight 6:54 AM CET 5:58 PM CET
Astronomical Twilight 6:17 AM CET 6:34 PM CET
Moon 7:03 PM CET (12/19) 9:09 AM CET (12/19)
Length of Visible Light 9h 48m
Length of Day
8h 39m
Waning Gibbous, 96% of the Moon is Illuminated
Dec 19
Waning Gibbous
Dec 25
Last Quarter
Jan 1
New
Jan 8
First Quarter
Jan 16
Full

Hourly Weather History & Observations

Time (CET) Temp. Windchill Dew Point Humidity Pressure Visibility Wind Dir Wind Speed Gust Speed Precip Events Conditions
12:00 AM 19 °F - 7 °F 47%  in 6 mi SSW 35.7 mph - -  
12:55 AM 19.4 °F 0.2 °F 8.6 °F 63% 30.04 in - SW 31.1 mph 43.7 mph N/A   Clear
1:00 AM 19 °F - 9 °F 51%  in 6 mi SW 31.1 mph - -  
1:55 AM 19.4 °F 0.2 °F 8.6 °F 63% 30.04 in 6.2 mi SW 31.1 mph 49.5 mph N/A   Mostly Cloudy
2:00 AM 19 °F - 9 °F 53%  in 6 mi SW 31.1 mph - -   Mostly Cloudy
2:55 AM 19.4 °F 1.4 °F 8.6 °F 63% 30.01 in 6.2 mi SSW 26.5 mph 39.1 mph N/A   Mostly Cloudy
3:00 AM 19 °F - 9 °F 53%  in 6 mi SSW 26.5 mph - -   Mostly Cloudy
3:55 AM 19.4 °F 1.8 °F 8.6 °F 63% 30.01 in 6.2 mi SW 25.3 mph 39.1 mph N/A   Mostly Cloudy
4:00 AM 19 °F - 9 °F 51%  in 6 mi SW 25.3 mph - -   Partly Cloudy
4:55 AM 19.4 °F 0.8 °F 6.8 °F 58% 29.98 in 6.2 mi SW 28.8 mph 42.6 mph N/A   Scattered Clouds
5:00 AM 19 °F - 7 °F 47%  in 6 mi SW 28.8 mph - -   Partly Cloudy
5:55 AM 19.4 °F -0.3 °F 6.8 °F 58% 29.95 in 6.2 mi SW 33.4 mph - N/A   Scattered Clouds
6:00 AM 19 °F - 7 °F 44%  in 6 mi SW 33.4 mph - -   Mostly Cloudy
6:55 AM 19.4 °F 0.5 °F 6.8 °F 58% 29.92 in 6.2 mi SSW 29.9 mph - N/A   Mostly Cloudy
7:00 AM 19 °F - 7 °F 44%  in 6 mi SSW 29.9 mph - -   Overcast
7:55 AM 19.4 °F 2.1 °F 6.8 °F 58% 29.95 in 6.2 mi SW 24.2 mph - N/A   Overcast
8:00 AM 20 °F - 7 °F 44%  in 6 mi SW 24.2 mph - -   Overcast
8:55 AM 19.4 °F 4.1 °F 10.4 °F 68% 29.98 in 6.2 mi SW 18.4 mph - N/A   Mostly Cloudy
9:00 AM 19 °F - 10 °F 54%  in 0 mi SW 18.4 mph - -   Mostly Cloudy
9:55 AM 19.4 °F 5.5 °F 10.4 °F 68% 29.98 in 6.2 mi SW 15.0 mph 26.5 mph N/A   Scattered Clouds
10:00 AM 19 °F - 10 °F 55%  in 19 mi SW 15.0 mph - -   Mostly Cloudy
10:55 AM 19.4 °F 6.6 °F 12.2 °F 74% 29.98 in 0.5 mi SW 12.7 mph - N/A Fog Light Freezing Fog
11:00 AM 19 °F - 12 °F 63%  in 0 mi SW 12.7 mph - - Fog Heavy Fog
11:55 AM 19.4 °F 6.6 °F 15.8 °F 86% 29.95 in 0.5 mi SW 12.7 mph - N/A Fog Light Freezing Fog
12:00 PM 20 °F - 16 °F 79%  in 0 mi SW 12.7 mph - - Fog Heavy Fog
12:55 PM 19.4 °F 6.6 °F 15.8 °F 86% 29.92 in 0.5 mi SSW 12.7 mph - N/A Fog Light Freezing Fog
1:00 PM 19 °F - 16 °F 82%  in 0 mi SSW 12.7 mph - - Fog Heavy Fog
1:55 PM 19.4 °F 4.5 °F 19.4 °F 100% 29.92 in 0.5 mi SSW 17.3 mph - N/A Fog Light Freezing Fog
2:00 PM 19 °F - 18 °F 97%  in 0 mi SSW 17.3 mph - - Fog Heavy Fog
2:55 PM 17.6 °F 3.2 °F 17.6 °F 100% 29.89 in 0.2 mi SSW 15.0 mph - N/A Fog , Snow Light Snow
3:00 PM 18 °F - 17 °F 94%  in 0 mi SSW 15.0 mph - - Snow Light Snow
3:55 PM 17.6 °F 0.1 °F 17.6 °F 100% 29.89 in 0.2 mi SSW 23.0 mph - N/A Fog , Snow Light Snow
4:00 PM 17 °F - 17 °F 99%  in 0 mi SSW 23.0 mph - - Snow Light Snow
4:55 PM 15.8 °F -2.7 °F 15.8 °F 100% 29.89 in 0.2 mi SSW 24.2 mph - N/A Fog , Snow Light Snow
5:00 PM 16 °F - 16 °F 100%  in 0 mi SSW 24.2 mph - - Snow Light Snow
5:55 PM 15.8 °F -1.9 °F 15.8 °F 100% 29.89 in 0.1 mi South 21.9 mph - N/A Fog , Snow Light Snow
6:00 PM 16 °F - 16 °F 100%  in 0 mi South 21.9 mph - - Snow Light Snow
6:55 PM 15.8 °F -1.1 °F 15.8 °F 100% 29.89 in 0.1 mi South 19.6 mph - N/A Fog , Snow Light Snow
7:00 PM 16 °F - 16 °F 98%  in 0 mi South 19.6 mph - - Snow Light Snow
7:55 PM 15.8 °F -1.9 °F 15.8 °F 100% 29.89 in 0.1 mi South 21.9 mph - N/A Fog , Snow Light Snow
8:00 PM 17 °F - 16 °F 94%  in 0 mi South 21.9 mph - - Snow Light Snow
8:55 PM 17.6 °F 4.3 °F 15.8 °F 93% 29.89 in 0.1 mi SSW 12.7 mph 27.6 mph N/A Fog , Snow Light Snow
9:00 PM 17 °F - 16 °F 95%  in 0 mi SSW 12.7 mph - - Snow Light Snow
9:55 PM 15.8 °F -0.2 °F 15.8 °F 100% 29.89 in 0.1 mi South 17.3 mph 28.8 mph N/A Fog , Snow Light Snow
10:00 PM 16 °F - 16 °F 99%  in 0 mi South 17.3 mph - - Snow Light Snow
10:55 PM 15.8 °F -3.1 °F 15.8 °F 100% 29.89 in 0.1 mi SSW 25.3 mph 39.1 mph N/A Fog , Snow Light Snow
11:00 PM 16 °F - 16 °F 100%  in 0 mi SSW 25.3 mph - - Snow Light Snow
11:55 PM 15.8 °F -0.2 °F 15.8 °F 100% 29.92 in 0.1 mi SSW 17.3 mph 29.9 mph N/A Fog , Snow Light Snow